SWR9TN LSGG-LSZH

Flight info

Callsign SWR9TN
Flight time 0h 31m
Altitude 17000
Route SOSAL N871 BERSU
Aircraft A321/M-SDE3FGHIRWY/LB1

Departure

Time 2026-05-07 19:10
Airport Geneva International Airport (LSGG)

Arrival

Time 2026-05-07 19:41
Airport Zürich Airport (LSZH)
Time Latitude Longitude Altitude Speed Heading
2026-05-07 18:49 46.23475 6.11190 1385 ft 0 kts 137°
2026-05-07 18:57 46.23486 6.11175 1380 ft 3 kts 137°
2026-05-07 18:58 46.23500 6.11156 1381 ft 3 kts 137°
2026-05-07 18:58 46.23514 6.11137 1380 ft 3 kts 156°
2026-05-07 18:58 46.23532 6.11135 1379 ft 3 kts 219°
2026-05-07 18:58 46.23537 6.11141 1379 ft 0 kts 227°
2026-05-07 19:01 46.23536 6.11140 1384 ft 1 kts 227°
2026-05-07 19:01 46.23518 6.11101 1379 ft 8 kts 237°
2026-05-07 19:01 46.23473 6.11019 1382 ft 10 kts 227°
2026-05-07 19:02 46.23431 6.10955 1385 ft 7 kts 226°
2026-05-07 19:02 46.23401 6.10910 1385 ft 6 kts 226°
2026-05-07 19:02 46.23356 6.10843 1388 ft 10 kts 233°
2026-05-07 19:02 46.23372 6.10767 1385 ft 8 kts 312°
2026-05-07 19:03 46.23406 6.10715 1387 ft 6 kts 306°
2026-05-07 19:03 46.23408 6.10653 1390 ft 7 kts 238°
2026-05-07 19:03 46.23372 6.10602 1389 ft 7 kts 225°
2026-05-07 19:03 46.23330 6.10542 1401 ft 12 kts 225°
2026-05-07 19:04 46.23250 6.10423 1399 ft 19 kts 226°
2026-05-07 19:04 46.23166 6.10298 1403 ft 15 kts 226°
2026-05-07 19:04 46.23103 6.10195 1405 ft 14 kts 229°
2026-05-07 19:04 46.23027 6.10082 1408 ft 18 kts 224°
2026-05-07 19:05 46.22931 6.09945 1412 ft 21 kts 225°
2026-05-07 19:05 46.22838 6.09808 1418 ft 18 kts 225°
2026-05-07 19:05 46.22758 6.09691 1413 ft 15 kts 224°
2026-05-07 19:05 46.22688 6.09590 1414 ft 13 kts 225°
2026-05-07 19:06 46.22631 6.09506 1419 ft 11 kts 225°
2026-05-07 19:06 46.22549 6.09291 1423 ft 10 kts 266°
2026-05-07 19:06 46.22549 6.09253 1421 ft 0 kts 271°
2026-05-07 19:07 46.22549 6.09247 1420 ft 2 kts 273°
2026-05-07 19:07 46.22556 6.09202 1417 ft 7 kts 290°
2026-05-07 19:08 46.22596 6.09153 1418 ft 6 kts 351°
2026-05-07 19:08 46.22622 6.09166 1423 ft 4 kts 32°
2026-05-07 19:08 46.22636 6.09184 1424 ft 1 kts 43°
2026-05-07 19:08 46.22660 6.09219 1422 ft 19 kts 45°
2026-05-07 19:09 46.22930 6.09611 1416 ft 88 kts 45°
2026-05-07 19:09 46.23495 6.10438 1396 ft 141 kts 45°
2026-05-07 19:09 46.24281 6.11595 1406 ft 177 kts 45°
2026-05-07 19:09 46.25137 6.12867 1935 ft 176 kts 45°
2026-05-07 19:10 46.25982 6.14140 2564 ft 176 kts 46°
2026-05-07 19:10 46.26831 6.15436 3029 ft 183 kts 46°
2026-05-07 19:10 46.27764 6.16831 3234 ft 202 kts 45°
2026-05-07 19:10 46.28791 6.18324 3458 ft 218 kts 45°
2026-05-07 19:11 46.29932 6.19956 3590 ft 245 kts 45°
2026-05-07 19:11 46.31185 6.21753 4079 ft 258 kts 45°
2026-05-07 19:11 46.32458 6.23609 4882 ft 261 kts 46°
2026-05-07 19:11 46.33740 6.25495 5625 ft 266 kts 46°
2026-05-07 19:12 46.35049 6.27429 6314 ft 273 kts 46°
2026-05-07 19:12 46.36330 6.29498 6945 ft 279 kts 56°
2026-05-07 19:12 46.37211 6.32015 7592 ft 283 kts 73°
2026-05-07 19:12 46.37764 6.34772 8283 ft 287 kts 75°
2026-05-07 19:13 46.38323 6.37575 8964 ft 292 kts 75°
2026-05-07 19:13 46.38895 6.40426 9630 ft 297 kts 76°
2026-05-07 19:13 46.39477 6.43327 10224 ft 305 kts 75°
2026-05-07 19:13 46.40089 6.46390 10383 ft 328 kts 75°
2026-05-07 19:14 46.40517 6.48539 10467 ft 343 kts 75°
2026-05-07 19:14 46.41199 6.51958 10597 ft 364 kts 75°
2026-05-07 19:14 46.41914 6.55537 10996 ft 374 kts 75°
2026-05-07 19:14 46.42643 6.59178 11590 ft 378 kts 75°
2026-05-07 19:15 46.43378 6.62855 12221 ft 382 kts 74°
2026-05-07 19:15 46.44237 6.66514 12847 ft 386 kts 66°
2026-05-07 19:15 46.45542 6.69928 13483 ft 389 kts 54°
2026-05-07 19:15 46.47221 6.73025 14071 ft 392 kts 50°
2026-05-07 19:16 46.48952 6.76100 14636 ft 395 kts 50°
2026-05-07 19:16 46.50691 6.79210 15197 ft 398 kts 50°
2026-05-07 19:16 46.52437 6.82357 15736 ft 402 kts 50°
2026-05-07 19:16 46.54192 6.85526 16278 ft 405 kts 50°
2026-05-07 19:17 46.55965 6.88725 16794 ft 408 kts 50°
2026-05-07 19:17 46.57754 6.91947 16989 ft 410 kts 49°
2026-05-07 19:17 46.59579 6.95225 17031 ft 424 kts 50°
2026-05-07 19:17 46.60355 6.96618 17035 ft 427 kts 50°
2026-05-07 19:18 46.62236 6.99995 17032 ft 430 kts 50°
2026-05-07 19:18 46.64120 7.03382 17035 ft 431 kts 50°
2026-05-07 19:18 46.66003 7.06777 17033 ft 431 kts 50°
2026-05-07 19:18 46.67884 7.10175 17031 ft 431 kts 50°
2026-05-07 19:19 46.69760 7.13573 17033 ft 431 kts 50°
2026-05-07 19:19 46.71640 7.16978 17033 ft 431 kts 50°
2026-05-07 19:19 46.73518 7.20386 17033 ft 431 kts 50°
2026-05-07 19:19 46.75391 7.23790 17046 ft 431 kts 50°
2026-05-07 19:20 46.77266 7.27204 17041 ft 431 kts 50°
2026-05-07 19:20 46.79139 7.30615 17039 ft 430 kts 50°
2026-05-07 19:20 46.81011 7.34024 17037 ft 430 kts 50°
2026-05-07 19:20 46.82882 7.37435 17034 ft 430 kts 50°
2026-05-07 19:21 46.84722 7.40800 17028 ft 430 kts 50°
2026-05-07 19:21 46.86591 7.44217 17026 ft 430 kts 50°
2026-05-07 19:21 46.88455 7.47634 17025 ft 430 kts 50°
2026-05-07 19:21 46.90316 7.51056 17039 ft 430 kts 50°
2026-05-07 19:22 46.92175 7.54482 17041 ft 430 kts 50°
2026-05-07 19:22 46.94033 7.57913 17048 ft 430 kts 51°
2026-05-07 19:22 46.95889 7.61343 17047 ft 430 kts 51°
2026-05-07 19:22 46.97772 7.64824 17045 ft 430 kts 51°
2026-05-07 19:23 46.99604 7.68212 17046 ft 430 kts 50°
2026-05-07 19:23 47.01462 7.71646 17046 ft 430 kts 50°
2026-05-07 19:23 47.03319 7.75081 17043 ft 430 kts 51°
2026-05-07 19:23 47.05173 7.78517 17043 ft 430 kts 51°
2026-05-07 19:24 47.07052 7.82007 17041 ft 430 kts 51°
2026-05-07 19:24 47.08897 7.85448 17040 ft 430 kts 51°
2026-05-07 19:24 47.10721 7.88857 17040 ft 430 kts 51°
2026-05-07 19:24 47.12563 7.92311 17053 ft 430 kts 52°
2026-05-07 19:25 47.14157 7.96029 17048 ft 431 kts 62°
2026-05-07 19:25 47.15445 7.99997 17047 ft 431 kts 64°
2026-05-07 19:25 47.16714 8.03982 17047 ft 431 kts 64°
2026-05-07 19:25 47.17982 8.07969 17047 ft 431 kts 64°
2026-05-07 19:26 47.19295 8.11931 17020 ft 428 kts 59°
2026-05-07 19:26 47.21030 8.15379 16754 ft 414 kts 44°
2026-05-07 19:26 47.23262 8.17948 16495 ft 405 kts 27°
2026-05-07 19:26 47.25866 8.19383 16238 ft 398 kts
2026-05-07 19:27 47.28599 8.19556 15983 ft 392 kts 351°
2026-05-07 19:27 47.31202 8.18532 15729 ft 386 kts 333°
2026-05-07 19:27 47.33602 8.16771 15500 ft 385 kts 330°
2026-05-07 19:27 47.36024 8.15087 15247 ft 386 kts 338°
2026-05-07 19:28 47.38656 8.14324 14992 ft 389 kts 356°
2026-05-07 19:28 47.41352 8.14744 14746 ft 392 kts 13°
2026-05-07 19:28 47.43852 8.16324 14508 ft 394 kts 31°
2026-05-07 19:28 47.45937 8.18940 14265 ft 394 kts 49°
2026-05-07 19:29 47.47407 8.22336 14026 ft 393 kts 66°
2026-05-07 19:29 47.48133 8.26210 13781 ft 391 kts 84°
2026-05-07 19:29 47.48076 8.30199 13513 ft 388 kts 99°
2026-05-07 19:29 47.47699 8.34150 13248 ft 387 kts 99°
2026-05-07 19:30 47.47320 8.38072 12859 ft 382 kts 100°
2026-05-07 19:30 47.46948 8.41888 12658 ft 370 kts 100°
2026-05-07 19:30 47.46587 8.45590 12432 ft 360 kts 100°
2026-05-07 19:30 47.46237 8.49182 12200 ft 350 kts 100°
2026-05-07 19:31 47.45898 8.52702 11972 ft 346 kts 99°
2026-05-07 19:31 47.45834 8.56259 11738 ft 346 kts 86°
2026-05-07 19:31 47.46089 8.59779 11515 ft 341 kts 85°
2026-05-07 19:31 47.46344 8.63219 11292 ft 333 kts 85°
2026-05-07 19:32 47.46592 8.66581 11013 ft 327 kts 85°
2026-05-07 19:32 47.46831 8.69876 10687 ft 316 kts 85°
2026-05-07 19:32 47.47060 8.73048 10377 ft 305 kts 85°
2026-05-07 19:32 47.47281 8.76129 10064 ft 300 kts 85°
2026-05-07 19:33 47.47496 8.79174 9723 ft 297 kts 85°
2026-05-07 19:33 47.47709 8.82198 9371 ft 294 kts 85°
2026-05-07 19:33 47.47917 8.85192 9033 ft 291 kts 85°
2026-05-07 19:33 47.48120 8.88100 8691 ft 284 kts 85°
2026-05-07 19:34 47.48321 8.90947 8354 ft 274 kts 85°
2026-05-07 19:34 47.48500 8.93683 8014 ft 259 kts 90°
2026-05-07 19:34 47.48125 8.96132 7700 ft 237 kts 124°
2026-05-07 19:34 47.46986 8.97723 7375 ft 222 kts 157°
2026-05-07 19:35 47.45507 8.98121 7149 ft 215 kts 188°
2026-05-07 19:35 47.44126 8.97336 7095 ft 216 kts 217°
2026-05-07 19:35 47.43192 8.95618 6969 ft 218 kts 248°
2026-05-07 19:35 47.42989 8.93424 6748 ft 218 kts 274°
2026-05-07 19:36 47.43157 8.91189 6437 ft 219 kts 276°
2026-05-07 19:36 47.43334 8.88956 6119 ft 219 kts 276°
2026-05-07 19:36 47.43502 8.86727 5789 ft 218 kts 276°
2026-05-07 19:36 47.43667 8.84501 5467 ft 219 kts 276°
2026-05-07 19:37 47.43830 8.82287 5168 ft 213 kts 276°
2026-05-07 19:37 47.43987 8.80156 4847 ft 205 kts 277°
2026-05-07 19:37 47.44137 8.78106 4539 ft 195 kts 277°
2026-05-07 19:37 47.44279 8.76163 4257 ft 187 kts 277°
2026-05-07 19:38 47.44417 8.74268 3986 ft 184 kts 277°
2026-05-07 19:38 47.44553 8.72409 3734 ft 178 kts 277°
2026-05-07 19:38 47.44681 8.70637 3483 ft 165 kts 277°
2026-05-07 19:38 47.44798 8.68983 3271 ft 159 kts 277°
2026-05-07 19:39 47.44904 8.67379 3012 ft 155 kts 277°
2026-05-07 19:39 47.45013 8.65824 2784 ft 153 kts 278°
2026-05-07 19:39 47.45124 8.64271 2580 ft 152 kts 278°
2026-05-07 19:39 47.45244 8.62760 2356 ft 150 kts 278°
2026-05-07 19:40 47.45357 8.61228 2089 ft 150 kts 277°
2026-05-07 19:40 47.45464 8.59696 1860 ft 150 kts 277°
2026-05-07 19:40 47.45571 8.58248 1640 ft 150 kts 278°
2026-05-07 19:40 47.45681 8.56721 1422 ft 147 kts 278°
2026-05-07 19:41 47.45781 8.55369 1396 ft 112 kts 276°
2026-05-07 19:41 47.45830 8.54658 1402 ft 40 kts 275°
2026-05-07 19:41 47.45852 8.54370 1402 ft 35 kts 284°
2026-05-07 19:41 47.45950 8.54285 1407 ft 10 kts 65°
2026-05-07 19:42 47.45955 8.54339 1400 ft 9 kts 90°